Powrót do katalogu

KUIPER-00459

AktywnyŁącznośćLEO
NORAD 68872·PAYLOAD·🇺🇸 United States

Wystrzelony Apr 28, 2026 z Cape Canaveral Space Force Station

Loading…

Następne Przeloty (najbliższe 24 godziny)

TLE

ŚwieżeSource: CelesTrak SupGP

Epoka: Sep 14, 2026, 20:06 UTC

1 68872C 26095J   26257.83762732  .00001715  00000+0  22454-3 0  2573
2 68872  51.9013 194.2933 0000862  84.9932 300.6256 14.79931473    15

Śledź KUIPER-00459 w czasie rzeczywistym z AllMySat

Download on the App Store